Time,TemperatureF,DewpointF,PressureIn,WindDirection,WindDirectionDegrees,WindSpeedMPH,WindSpeedGustMPH,Humidity,HourlyPrecipIn,Conditions,Clouds,dailyrainin,SoftwareType,DateUTC
2013-05-14 00:01:00,41.7,11.0,26.95,North,4,0.0,0.0,28,0.00,CLR,,0.00,WeatherDisplay:10.37,2013-05-14 04:01:00,
2013-05-14 00:02:00,41.7,11.0,26.95,North,4,0.0,0.0,28,0.00,CLR,,0.00,WeatherDisplay:10.37,2013-05-14 04:02:00,
2013-05-14 00:04:00,41.9,11.1,26.95,WNW,291,0.0,0.0,28,0.00,CLR,,0.00,WeatherDisplay:10.37,2013-05-14 04:04:00,
2013-05-14 00:07:00,42.1,11.3,26.95,WNW,291,0.0,0.0,28,0.00,CLR,,0.00,WeatherDisplay:10.37,2013-05-14 04:07:00,
2013-05-14 00:12:00,42.3,11.4,26.95,West,265,0.0,0.0,28,0.00,CLR,,0.00,WeatherDisplay:10.37,2013-05-14 04:12:00,
2013-05-14 00:17:00,42.3,11.4,26.95,WNW,288,0.0,0.0,28,0.00,CLR,,0.00,WeatherDisplay:10.37,2013-05-14 04:17:00,
2013-05-14 00:22:00,42.1,11.3,26.95,NNW,345,0.0,0.0,28,0.00,CLR,,0.00,WeatherDisplay:10.37,2013-05-14 04:22:00,
2013-05-14 00:27:00,42.1,11.3,26.95,North,350,0.0,0.0,28,0.00,CLR,,0.00,WeatherDisplay:10.37,2013-05-14 04:27:00,
2013-05-14 00:32:00,42.1,11.3,26.95,North,350,0.0,0.0,28,0.00,CLR,,0.00,WeatherDisplay:10.37,2013-05-14 04:32:00,
2013-05-14 00:37:00,42.1,11.3,26.95,North,350,0.0,0.0,28,0.00,CLR,,0.00,WeatherDisplay:10.37,2013-05-14 04:37:00,
2013-05-14 00:42:00,41.9,11.1,26.95,North,357,0.0,0.0,28,0.00,CLR,,0.00,WeatherDisplay:10.37,2013-05-14 04:42:00,
2013-05-14 00:47:00,41.9,11.1,26.95,North,7,0.0,0.0,28,0.00,CLR,,0.00,WeatherDisplay:10.37,2013-05-14 04:47:00,
2013-05-14 00:52:00,41.7,11.0,26.95,North,7,0.0,0.0,28,0.00,CLR,,0.00,WeatherDisplay:10.37,2013-05-14 04:52:00,
2013-05-14 00:57:00,41.4,10.6,26.95,North,7,0.0,0.0,28,0.00,CLR,,0.00,WeatherDisplay:10.37,2013-05-14 04:57:00,
2013-05-14 01:02:00,41.4,10.6,26.95,WSW,246,0.0,0.0,28,0.00,CLR,,0.00,WeatherDisplay:10.37,2013-05-14 05:02:00,
2013-05-14 01:07:00,41.4,10.6,26.95,WSW,246,0.0,0.0,28,0.00,CLR,,0.00,WeatherDisplay:10.37,2013-05-14 05:07:00,
2013-05-14 01:12:00,41.5,10.8,26.95,WSW,246,0.0,0.0,28,0.00,CLR,,0.00,WeatherDisplay:10.37,2013-05-14 05:12:00,
2013-05-14 01:17:00,41.5,10.8,26.95,WSW,246,0.0,0.0,28,0.00,CLR,,0.00,WeatherDisplay:10.37,2013-05-14 05:17:00,
2013-05-14 01:22:00,41.5,10.8,26.95,WSW,246,0.0,0.0,28,0.00,CLR,,0.00,WeatherDisplay:10.37,2013-05-14 05:22:00,
2013-05-14 01:27:00,41.7,11.0,26.95,WSW,246,0.0,0.0,28,0.00,CLR,,0.00,WeatherDisplay:10.37,2013-05-14 05:27:00,
2013-05-14 01:32:00,41.7,11.0,26.95,WNW,288,0.0,0.0,28,0.00,CLR,,0.00,WeatherDisplay:10.37,2013-05-14 05:32:00,
2013-05-14 01:37:00,42.1,11.3,26.95,North,357,2.3,0.0,28,0.00,CLR,,0.00,WeatherDisplay:10.37,2013-05-14 05:37:00,
2013-05-14 01:42:00,42.1,11.3,26.95,NNE,22,0.0,0.0,28,0.00,CLR,,0.00,WeatherDisplay:10.37,2013-05-14 05:42:00,
2013-05-14 01:47:00,42.3,11.4,26.95,NNW,345,2.3,0.0,28,0.00,CLR,,0.00,WeatherDisplay:10.37,2013-05-14 05:47:00,
2013-05-14 01:52:00,42.3,11.4,26.95,West,270,0.0,0.0,28,0.00,CLR,,0.00,WeatherDisplay:10.37,2013-05-14 05:52:00,
2013-05-14 01:57:00,42.3,11.4,26.95,West,270,0.0,0.0,28,0.00,CLR,,0.00,WeatherDisplay:10.37,2013-05-14 05:57:00,
2013-05-14 02:02:00,42.3,11.4,26.95,NNW,331,0.0,0.0,28,0.00,CLR,,0.00,WeatherDisplay:10.37,2013-05-14 06:02:00,
2013-05-14 02:07:00,42.1,11.3,26.95,NNW,331,2.3,0.0,28,0.00,CLR,,0.00,WeatherDisplay:10.37,2013-05-14 06:07:00,
2013-05-14 02:12:00,41.7,13.3,26.95,NNW,331,0.0,0.0,31,0.00,CLR,,0.00,WeatherDisplay:10.37,2013-05-14 06:12:00,
2013-05-14 02:17:00,41.5,10.8,26.95,NNW,331,0.0,0.0,28,0.00,CLR,,0.00,WeatherDisplay:10.37,2013-05-14 06:17:00,
2013-05-14 02:22:00,41.0,10.3,26.95,NNW,331,0.0,0.0,28,0.00,CLR,,0.00,WeatherDisplay:10.37,2013-05-14 06:22:00,
2013-05-14 02:27:00,40.6,10.0,26.95,North,357,0.0,0.0,28,0.00,CLR,,0.00,WeatherDisplay:10.37,2013-05-14 06:27:00,
2013-05-14 02:32:00,40.3,9.7,26.95,North,357,0.0,0.0,28,0.00,CLR,,0.00,WeatherDisplay:10.37,2013-05-14 06:32:00,
2013-05-14 02:37:00,40.1,9.6,26.95,North,357,0.0,0.0,28,0.00,CLR,,0.00,WeatherDisplay:10.37,2013-05-14 06:37:00,
2013-05-14 02:42:00,39.7,9.2,26.95,North,357,0.0,0.0,28,0.00,CLR,,0.00,WeatherDisplay:10.37,2013-05-14 06:42:00,
2013-05-14 02:47:00,39.4,8.9,26.95,North,357,0.0,0.0,28,0.00,CLR,,0.00,WeatherDisplay:10.37,2013-05-14 06:47:00,
2013-05-14 02:52:00,39.0,9.4,26.95,NW,316,0.0,0.0,29,0.00,CLR,,0.00,WeatherDisplay:10.37,2013-05-14 06:52:00,
2013-05-14 02:57:00,38.7,9.1,26.95,NW,311,0.0,0.0,29,0.00,CLR,,0.00,WeatherDisplay:10.37,2013-05-14 06:57:00,
2013-05-14 03:02:00,38.5,8.9,26.95,NNE,25,3.5,0.0,29,0.00,CLR,,0.00,WeatherDisplay:10.37,2013-05-14 07:02:00,
2013-05-14 03:07:00,38.3,8.8,26.95,West,266,0.0,0.0,29,0.00,CLR,,0.00,WeatherDisplay:10.37,2013-05-14 07:07:00,
2013-05-14 03:12:00,38.3,8.8,26.95,West,266,0.0,0.0,29,0.00,CLR,,0.00,WeatherDisplay:10.37,2013-05-14 07:12:00,
2013-05-14 03:17:00,38.1,8.6,26.95,West,266,0.0,0.0,29,0.00,CLR,,0.00,WeatherDisplay:10.37,2013-05-14 07:17:00,
2013-05-14 03:22:00,38.1,8.6,26.95,West,266,0.0,0.0,29,0.00,CLR,,0.00,WeatherDisplay:10.37,2013-05-14 07:22:00,
2013-05-14 03:27:00,37.9,8.5,26.95,West,266,0.0,0.0,29,0.00,CLR,,0.00,WeatherDisplay:10.37,2013-05-14 07:27:00,
2013-05-14 03:32:00,37.6,8.1,26.95,West,266,0.0,0.0,29,0.00,CLR,,0.00,WeatherDisplay:10.37,2013-05-14 07:32:00,
2013-05-14 03:37:00,37.4,8.0,26.95,West,266,0.0,0.0,29,0.00,CLR,,0.00,WeatherDisplay:10.37,2013-05-14 07:37:00,
2013-05-14 03:42:00,37.4,8.0,26.95,West,266,0.0,0.0,29,0.00,CLR,,0.00,WeatherDisplay:10.37,2013-05-14 07:42:00,
2013-05-14 03:47:00,37.2,7.8,26.95,West,266,0.0,0.0,29,0.00,CLR,,0.00,WeatherDisplay:10.37,2013-05-14 07:47:00,
2013-05-14 03:52:00,37.0,7.7,26.95,West,266,0.0,0.0,29,0.00,CLR,,0.00,WeatherDisplay:10.37,2013-05-14 07:52:00,
2013-05-14 03:57:00,36.9,9.7,26.95,West,266,0.0,0.0,32,0.00,CLR,,0.00,WeatherDisplay:10.37,2013-05-14 07:57:00,
2013-05-14 04:02:00,36.9,9.7,26.95,West,266,0.0,0.0,32,0.00,CLR,,0.00,WeatherDisplay:10.37,2013-05-14 08:02:00,
2013-05-14 04:07:00,36.7,9.5,26.95,West,266,0.0,0.0,32,0.00,CLR,,0.00,WeatherDisplay:10.37,2013-05-14 08:07:00,
2013-05-14 04:12:00,36.5,9.4,26.95,West,266,0.0,0.0,32,0.00,CLR,,0.00,WeatherDisplay:10.37,2013-05-14 08:12:00,
2013-05-14 04:17:00,36.5,9.4,26.95,West,266,0.0,0.0,32,0.00,CLR,,0.00,WeatherDisplay:10.37,2013-05-14 08:17:00,
2013-05-14 04:22:00,36.3,9.2,26.95,West,266,0.0,0.0,32,0.00,CLR,,0.00,WeatherDisplay:10.37,2013-05-14 08:22:00,
2013-05-14 04:27:00,36.1,9.1,26.95,West,266,0.0,0.0,32,0.00,CLR,,0.00,WeatherDisplay:10.37,2013-05-14 08:27:00,
2013-05-14 04:32:00,36.1,9.1,26.95,West,265,0.0,0.0,32,0.00,CLR,,0.00,WeatherDisplay:10.37,2013-05-14 08:32:00,
2013-05-14 04:37:00,36.0,8.9,26.95,West,266,0.0,0.0,32,0.00,CLR,,0.00,WeatherDisplay:10.37,2013-05-14 08:37:00,
2013-05-14 04:42:00,36.0,8.9,26.95,West,266,0.0,0.0,32,0.00,CLR,,0.00,WeatherDisplay:10.37,2013-05-14 08:42:00,
2013-05-14 04:47:00,36.0,8.9,26.95,West,266,0.0,0.0,32,0.00,CLR,,0.00,WeatherDisplay:10.37,2013-05-14 08:47:00,
2013-05-14 04:52:00,36.0,8.9,26.95,West,266,0.0,0.0,32,0.00,CLR,,0.00,WeatherDisplay:10.37,2013-05-14 08:52:00,
2013-05-14 04:57:00,35.8,8.8,26.95,West,266,0.0,0.0,32,0.00,CLR,,0.00,WeatherDisplay:10.37,2013-05-14 08:57:00,
2013-05-14 05:02:00,35.8,8.8,26.95,West,266,0.0,0.0,32,0.00,CLR,,0.00,WeatherDisplay:10.37,2013-05-14 09:02:00,
2013-05-14 05:07:00,35.6,9.9,26.95,West,266,0.0,0.0,34,0.00,CLR,,0.00,WeatherDisplay:10.37,2013-05-14 09:07:00,
2013-05-14 05:12:00,35.8,10.1,26.95,West,266,0.0,0.0,34,0.00,CLR,,0.00,WeatherDisplay:10.37,2013-05-14 09:12:00,
2013-05-14 05:17:00,36.0,10.3,26.95,West,265,0.0,0.0,34,0.00,CLR,,0.00,WeatherDisplay:10.37,2013-05-14 09:17:00,
2013-05-14 05:22:00,36.1,10.4,26.95,West,266,0.0,0.0,34,0.00,CLR,,0.00,WeatherDisplay:10.37,2013-05-14 09:22:00,
2013-05-14 05:27:00,36.7,10.9,26.95,West,265,0.0,0.0,34,0.00,CLR,,0.00,WeatherDisplay:10.37,2013-05-14 09:27:00,
2013-05-14 05:32:00,36.9,11.1,26.95,West,265,0.0,0.0,34,0.00,CLR,,0.00,WeatherDisplay:10.37,2013-05-14 09:32:00,
2013-05-14 05:37:00,37.4,11.5,26.95,West,266,3.5,0.0,34,0.00,CLR,,0.00,WeatherDisplay:10.37,2013-05-14 09:37:00,
2013-05-14 05:42:00,37.8,11.9,26.95,West,266,2.3,0.0,34,0.00,CLR,,0.00,WeatherDisplay:10.37,2013-05-14 09:42:00,
2013-05-14 05:47:00,38.1,12.2,26.95,West,266,0.0,0.0,34,0.00,CLR,,0.00,WeatherDisplay:10.37,2013-05-14 09:47:00,
2013-05-14 05:52:00,38.5,12.5,26.95,West,266,0.0,0.0,34,0.00,CLR,,0.00,WeatherDisplay:10.37,2013-05-14 09:52:00,
2013-05-14 05:57:00,38.7,12.7,26.95,West,260,2.3,0.0,34,0.00,CLR,,0.00,WeatherDisplay:10.37,2013-05-14 09:57:00,
2013-05-14 06:02:00,38.8,10.7,26.95,West,260,0.0,0.0,31,0.00,CLR,,0.00,WeatherDisplay:10.37,2013-05-14 10:02:00,
2013-05-14 06:07:00,39.2,11.0,26.95,West,280,0.0,0.0,31,0.00,CLR,,0.00,WeatherDisplay:10.37,2013-05-14 10:07:00,
2013-05-14 06:12:00,39.4,11.2,26.95,West,280,0.0,0.0,31,0.00,CLR,,0.00,WeatherDisplay:10.37,2013-05-14 10:12:00,
2013-05-14 06:17:00,39.7,11.5,26.95,West,280,0.0,0.0,31,0.00,CLR,,0.00,WeatherDisplay:10.37,2013-05-14 10:17:00,
2013-05-14 06:22:00,39.9,11.7,26.95,West,280,0.0,0.0,31,0.00,CLR,,0.00,WeatherDisplay:10.37,2013-05-14 10:22:00,
2013-05-14 06:27:00,40.3,12.0,26.95,NNW,345,0.0,0.0,31,0.00,CLR,,0.00,WeatherDisplay:10.37,2013-05-14 10:27:00,
2013-05-14 06:32:00,40.5,12.2,26.95,NNW,345,0.0,0.0,31,0.00,CLR,,0.00,WeatherDisplay:10.37,2013-05-14 10:32:00,
2013-05-14 06:37:00,40.8,12.5,26.95,West,277,2.3,0.0,31,0.00,CLR,,0.00,WeatherDisplay:10.37,2013-05-14 10:37:00,
2013-05-14 06:42:00,41.2,12.8,26.95,NW,313,0.0,0.0,31,0.00,CLR,,0.00,WeatherDisplay:10.37,2013-05-14 10:42:00,
2013-05-14 06:47:00,41.7,13.3,26.95,NW,307,2.3,0.0,31,0.00,CLR,,0.00,WeatherDisplay:10.37,2013-05-14 10:47:00,
2013-05-14 06:52:00,42.1,13.6,26.95,West,264,2.3,0.0,31,0.00,CLR,,0.00,WeatherDisplay:10.37,2013-05-14 10:52:00,
2013-05-14 06:57:00,42.4,13.9,26.95,West,264,0.0,0.0,31,0.00,CLR,,0.00,WeatherDisplay:10.37,2013-05-14 10:57:00,
2013-05-14 07:02:00,43.0,13.6,26.95,NNW,328,0.0,0.0,30,0.00,CLR,,0.00,WeatherDisplay:10.37,2013-05-14 11:02:00,
2013-05-14 07:07:00,43.5,14.1,26.95,NNW,336,0.0,0.0,30,0.00,CLR,,0.00,WeatherDisplay:10.37,2013-05-14 11:07:00,
2013-05-14 07:12:00,44.2,14.7,26.95,WNW,292,3.5,0.0,30,0.00,CLR,,0.00,WeatherDisplay:10.37,2013-05-14 11:12:00,
2013-05-14 07:17:00,44.6,12.6,26.95,NW,324,2.3,0.0,27,0.00,CLR,,0.00,WeatherDisplay:10.37,2013-05-14 11:17:00,
2013-05-14 07:22:00,45.0,12.9,26.95,West,263,2.3,2.3,27,0.00,CLR,,0.00,WeatherDisplay:10.37,2013-05-14 11:22:00,
2013-05-14 07:27:00,45.1,13.1,26.95,WNW,287,2.3,0.0,27,0.00,CLR,,0.00,WeatherDisplay:10.37,2013-05-14 11:27:00,
2013-05-14 07:32:00,45.5,13.4,26.95,North,5,0.0,0.0,27,0.00,CLR,,0.00,WeatherDisplay:10.37,2013-05-14 11:32:00,
2013-05-14 07:37:00,46.8,14.5,26.95,NW,310,2.3,0.0,27,0.00,CLR,,0.00,WeatherDisplay:10.37,2013-05-14 11:37:00,
2013-05-14 07:42:00,47.5,15.1,26.95,NW,306,3.6,3.6,27,0.00,CLR,,0.00,WeatherDisplay:10.37,2013-05-14 11:42:00,
2013-05-14 07:47:00,48.2,17.4,26.95,West,270,3.5,0.0,29,0.00,CLR,,0.00,WeatherDisplay:10.37,2013-05-14 11:47:00,
2013-05-14 07:53:00,48.9,15.5,26.95,NW,310,3.5,0.0,26,0.00,CLR,,0.00,WeatherDisplay:10.37,2013-05-14 11:53:00,
2013-05-14 07:58:00,49.6,16.1,26.95,WNW,287,2.3,0.0,26,0.00,CLR,,0.00,WeatherDisplay:10.37,2013-05-14 11:58:00,
2013-05-14 08:03:00,50.9,19.7,26.95,West,275,2.3,0.0,29,0.00,CLR,,0.00,WeatherDisplay:10.37,2013-05-14 12:03:00,
2013-05-14 08:08:00,50.9,19.7,26.95,North,357,5.8,5.8,29,0.00,CLR,,0.00,WeatherDisplay:10.37,2013-05-14 12:08:00,
2013-05-14 08:13:00,51.4,17.6,26.95,West,280,3.5,3.5,26,0.00,CLR,,0.00,WeatherDisplay:10.37,2013-05-14 12:13:00,
2013-05-14 08:18:00,51.1,19.9,26.95,WSW,246,0.0,0.0,29,0.00,CLR,,0.00,WeatherDisplay:10.37,2013-05-14 12:18:00,
2013-05-14 08:23:00,51.1,19.9,26.95,West,272,3.5,3.5,29,0.00,CLR,,0.00,WeatherDisplay:10.37,2013-05-14 12:23:00,
2013-05-14 08:28:00,51.4,17.6,26.95,WSW,237,3.5,0.0,26,0.00,CLR,,0.00,WeatherDisplay:10.37,2013-05-14 12:28:00,
2013-05-14 08:33:00,51.1,17.3,26.95,WNW,303,0.0,0.0,26,0.00,CLR,,0.00,WeatherDisplay:10.37,2013-05-14 12:33:00,
2013-05-14 08:38:00,50.9,19.7,26.95,SE,141,3.5,3.5,29,0.00,CLR,,0.00,WeatherDisplay:10.37,2013-05-14 12:38:00,
2013-05-14 08:43:00,51.6,20.4,26.95,North,357,5.8,5.8,29,0.00,CLR,,0.00,WeatherDisplay:10.37,2013-05-14 12:43:00,
2013-05-14 08:48:00,53.6,21.2,26.95,WNW,294,5.8,5.8,28,0.00,CLR,,0.00,WeatherDisplay:10.37,2013-05-14 12:48:00,
2013-05-14 08:53:00,53.1,20.8,26.95,NNW,337,3.5,3.5,28,0.00,CLR,,0.00,WeatherDisplay:10.37,2013-05-14 12:53:00,
2013-05-14 08:58:00,53.1,20.8,26.95,NNW,337,10.4,10.4,28,0.00,CLR,,0.00,WeatherDisplay:10.37,2013-05-14 12:58:00,
2013-05-14 09:03:00,53.6,21.2,26.95,WNW,301,3.5,0.0,28,0.00,CLR,,0.00,WeatherDisplay:10.37,2013-05-14 13:03:00,
2013-05-14 09:08:00,53.8,21.4,26.95,WSW,253,5.8,5.8,28,0.00,CLR,,0.00,WeatherDisplay:10.37,2013-05-14 13:08:00,
2013-05-14 09:13:00,52.3,20.2,26.95,NNW,344,5.8,6.7,28,0.00,CLR,,0.00,WeatherDisplay:10.37,2013-05-14 13:13:00,
2013-05-14 09:18:00,52.5,20.3,26.95,WNW,297,5.8,5.8,28,0.00,CLR,,0.00,WeatherDisplay:10.37,2013-05-14 13:18:00,
2013-05-14 09:23:00,52.7,20.5,26.95,NE,56,4.6,4.6,28,0.00,CLR,,0.00,WeatherDisplay:10.37,2013-05-14 13:23:00,
2013-05-14 09:28:00,53.1,20.8,26.95,WNW,284,5.8,5.8,28,0.00,CLR,,0.00,WeatherDisplay:10.37,2013-05-14 13:28:00,
2013-05-14 09:33:00,53.6,21.2,26.95,WSW,248,5.8,5.8,28,0.00,CLR,,0.00,WeatherDisplay:10.37,2013-05-14 13:33:00,
2013-05-14 09:38:00,55.6,22.1,26.95,North,4,3.5,0.0,27,0.00,CLR,,0.00,WeatherDisplay:10.37,2013-05-14 13:38:00,
2013-05-14 09:43:00,55.4,21.9,26.95,NW,312,2.3,0.0,27,0.00,CLR,,0.00,WeatherDisplay:10.37,2013-05-14 13:43:00,
2013-05-14 09:48:00,55.4,21.9,26.95,NNW,334,5.8,5.8,27,0.00,CLR,,0.00,WeatherDisplay:10.37,2013-05-14 13:48:00,
2013-05-14 09:53:00,56.5,22.9,26.95,WSW,254,8.1,8.1,27,0.00,CLR,,0.00,WeatherDisplay:10.37,2013-05-14 13:53:00,
2013-05-14 09:58:00,56.1,22.6,26.95,WNW,303,10.4,10.4,27,0.00,CLR,,0.00,WeatherDisplay:10.37,2013-05-14 13:58:00,
2013-05-14 10:03:00,56.7,23.0,26.95,WNW,300,6.9,6.9,27,0.00,CLR,,0.00,WeatherDisplay:10.37,2013-05-14 14:03:00,
2013-05-14 10:08:00,55.4,21.9,26.95,North,353,3.5,3.6,27,0.00,CLR,,0.00,WeatherDisplay:10.37,2013-05-14 14:08:00,
2013-05-14 10:13:00,55.2,22.6,26.95,West,262,8.3,8.3,28,0.00,CLR,,0.00,WeatherDisplay:10.37,2013-05-14 14:13:00,
2013-05-14 10:18:00,57.6,23.8,26.95,NNW,343,3.5,3.5,27,0.00,CLR,,0.00,WeatherDisplay:10.37,2013-05-14 14:18:00,
2013-05-14 10:23:00,56.7,23.0,26.95,North,10,4.6,4.6,27,0.00,CLR,,0.00,WeatherDisplay:10.37,2013-05-14 14:23:00,
2013-05-14 10:28:00,53.8,21.4,26.95,South,176,2.3,0.0,28,0.00,CLR,,0.00,WeatherDisplay:10.37,2013-05-14 14:28:00,
2013-05-14 10:33:00,52.9,20.6,26.95,NNE,12,8.1,8.1,28,0.00,CLR,,0.00,WeatherDisplay:10.37,2013-05-14 14:33:00,
2013-05-14 10:38:00,52.2,20.0,26.95,NW,304,8.1,8.1,28,0.00,CLR,,0.00,WeatherDisplay:10.37,2013-05-14 14:38:00,
2013-05-14 10:43:00,53.6,21.2,26.95,NNW,339,3.5,3.5,28,0.00,CLR,,0.00,WeatherDisplay:10.37,2013-05-14 14:43:00,
2013-05-14 10:48:00,55.0,22.5,26.95,North,0,5.8,5.8,28,0.00,CLR,,0.00,WeatherDisplay:10.37,2013-05-14 14:48:00,
2013-05-14 10:53:00,55.4,21.9,26.95,ENE,59,6.9,6.9,27,0.00,CLR,,0.00,WeatherDisplay:10.37,2013-05-14 14:53:00,
2013-05-14 10:58:00,55.4,21.9,26.95,NW,304,5.8,5.8,27,0.00,CLR,,0.00,WeatherDisplay:10.37,2013-05-14 14:58:00,
2013-05-14 11:03:00,55.2,22.6,26.95,SSW,195,5.8,5.8,28,0.00,CLR,,0.00,WeatherDisplay:10.37,2013-05-14 15:03:00,
2013-05-14 11:08:00,55.4,21.9,26.95,NE,48,3.6,3.6,27,0.00,CLR,,0.00,WeatherDisplay:10.37,2013-05-14 15:08:00,
2013-05-14 11:13:00,54.3,21.9,26.95,WNW,294,4.6,4.6,28,0.00,CLR,,0.00,WeatherDisplay:10.37,2013-05-14 15:13:00,
2013-05-14 11:18:00,54.9,22.3,26.95,WNW,289,8.1,0.0,28,0.00,CLR,,0.00,WeatherDisplay:10.37,2013-05-14 15:18:00,
2013-05-14 11:23:00,56.3,22.7,26.95,West,263,5.8,5.8,27,0.00,CLR,,0.00,WeatherDisplay:10.37,2013-05-14 15:23:00,
2013-05-14 11:28:00,57.2,23.5,26.95,NW,325,5.8,5.8,27,0.00,CLR,,0.00,WeatherDisplay:10.37,2013-05-14 15:28:00,
2013-05-14 11:33:00,56.5,22.9,26.95,NW,316,5.8,5.8,27,0.00,CLR,,0.00,WeatherDisplay:10.37,2013-05-14 15:33:00,
2013-05-14 11:38:00,57.9,24.1,26.95,NW,311,3.5,3.5,27,0.00,CLR,,0.00,WeatherDisplay:10.37,2013-05-14 15:38:00,
2013-05-14 11:43:00,57.7,23.9,26.95,West,278,8.1,8.1,27,0.00,CLR,,0.00,WeatherDisplay:10.37,2013-05-14 15:43:00,
2013-05-14 11:48:00,58.5,24.6,26.95,WSW,258,8.1,8.1,27,0.00,CLR,,0.00,WeatherDisplay:10.37,2013-05-14 15:48:00,
2013-05-14 11:53:00,57.4,23.6,26.95,West,275,5.8,5.8,27,0.00,CLR,,0.00,WeatherDisplay:10.37,2013-05-14 15:53:00,
2013-05-14 11:58:00,59.9,25.8,26.95,WNW,298,3.5,3.5,27,0.00,CLR,,0.00,WeatherDisplay:10.37,2013-05-14 15:58:00,
2013-05-14 12:03:00,58.5,24.6,26.95,West,259,3.5,3.5,27,0.00,CLR,,0.00,WeatherDisplay:10.37,2013-05-14 16:03:00,
2013-05-14 12:08:00,58.1,24.3,26.95,NW,305,5.8,5.8,27,0.00,CLR,,0.00,WeatherDisplay:10.37,2013-05-14 16:08:00,
2013-05-14 12:13:00,57.7,23.9,26.95,WNW,297,8.0,8.0,27,0.00,CLR,,0.00,WeatherDisplay:10.37,2013-05-14 16:13:00,
2013-05-14 12:18:00,57.4,23.6,26.95,SSW,196,3.5,3.5,27,0.00,CLR,,0.00,WeatherDisplay:10.37,2013-05-14 16:18:00,
2013-05-14 12:23:00,56.3,22.7,26.95,NNW,341,5.8,5.8,27,0.00,CLR,,0.00,WeatherDisplay:10.37,2013-05-14 16:23:00,
2013-05-14 12:28:00,62.2,26.9,26.95,NNE,18,3.5,3.5,26,0.00,CLR,,0.00,WeatherDisplay:10.37,2013-05-14 16:28:00,
2013-05-14 12:33:00,59.7,25.6,26.95,WSW,253,6.9,6.9,27,0.00,CLR,,0.00,WeatherDisplay:10.37,2013-05-14 16:33:00,
2013-05-14 12:38:00,58.3,24.4,26.95,NNW,331,5.8,5.8,27,0.00,CLR,,0.00,WeatherDisplay:10.37,2013-05-14 16:38:00,
2013-05-14 12:43:00,61.7,26.4,26.95,WNW,284,5.8,5.8,26,0.00,CLR,,0.00,WeatherDisplay:10.37,2013-05-14 16:43:00,
2013-05-14 12:48:00,59.2,25.2,26.95,NE,50,3.5,3.5,27,0.00,CLR,,0.00,WeatherDisplay:10.37,2013-05-14 16:48:00,
2013-05-14 12:53:00,60.3,26.1,26.95,NE,51,8.1,8.1,27,0.00,CLR,,0.00,WeatherDisplay:10.37,2013-05-14 16:53:00,
2013-05-14 12:58:00,61.3,26.1,26.95,WSW,242,8.1,8.1,26,0.00,CLR,,0.00,WeatherDisplay:10.37,2013-05-14 16:58:00,
2013-05-14 13:03:00,59.7,25.6,26.95,West,273,3.5,3.5,27,0.00,CLR,,0.00,WeatherDisplay:10.37,2013-05-14 17:03:00,
2013-05-14 13:08:00,61.3,26.1,26.95,West,260,5.8,5.8,26,0.00,CLR,,0.00,WeatherDisplay:10.37,2013-05-14 17:08:00,
2013-05-14 13:13:00,61.0,25.8,26.95,West,274,3.5,3.6,26,0.00,CLR,,0.00,WeatherDisplay:10.37,2013-05-14 17:13:00,
2013-05-14 13:18:00,57.6,23.8,26.95,North,350,9.2,9.2,27,0.00,CLR,,0.00,WeatherDisplay:10.37,2013-05-14 17:18:00,
2013-05-14 13:23:00,59.2,25.2,26.95,WNW,295,6.9,6.9,27,0.00,CLR,,0.00,WeatherDisplay:10.37,2013-05-14 17:23:00,
2013-05-14 13:28:00,59.0,25.0,26.95,North,10,3.5,3.5,27,0.00,CLR,,0.00,WeatherDisplay:10.37,2013-05-14 17:28:00,
2013-05-14 13:33:00,59.2,25.2,26.95,North,357,8.1,8.1,27,0.00,CLR,,0.00,WeatherDisplay:10.37,2013-05-14 17:33:00,
2013-05-14 13:38:00,59.2,25.2,26.95,NNW,345,3.5,4.0,27,0.00,CLR,,0.00,WeatherDisplay:10.37,2013-05-14 17:38:00,
2013-05-14 13:43:00,60.3,26.1,26.95,NW,305,8.1,8.1,27,0.00,CLR,,0.00,WeatherDisplay:10.37,2013-05-14 17:43:00,
2013-05-14 13:48:00,62.2,26.9,26.95,North,353,5.8,5.8,26,0.00,CLR,,0.00,WeatherDisplay:10.37,2013-05-14 17:48:00,
2013-05-14 13:53:00,60.4,26.3,26.95,North,4,5.8,5.8,27,0.00,CLR,,0.00,WeatherDisplay:10.37,2013-05-14 17:53:00,
2013-05-14 13:58:00,63.5,28.0,26.95,NW,326,5.8,5.8,26,0.00,CLR,,0.00,WeatherDisplay:10.37,2013-05-14 17:58:00,
2013-05-14 14:03:00,62.6,27.2,26.95,North,357,5.8,5.8,26,0.00,CLR,,0.00,WeatherDisplay:10.37,2013-05-14 18:03:00,
2013-05-14 14:08:00,59.0,25.0,26.95,West,260,10.4,10.4,27,0.00,CLR,,0.00,WeatherDisplay:10.37,2013-05-14 18:08:00,
2013-05-14 14:13:00,59.0,25.0,26.95,West,280,5.8,5.8,27,0.00,CLR,,0.00,WeatherDisplay:10.37,2013-05-14 18:13:00,
2013-05-14 14:18:00,59.4,25.3,26.95,NW,304,5.8,5.8,27,0.00,CLR,,0.00,WeatherDisplay:10.37,2013-05-14 18:18:00,
2013-05-14 14:23:00,58.6,24.7,26.95,NW,322,3.5,4.0,27,0.00,CLR,,0.00,WeatherDisplay:10.37,2013-05-14 18:23:00,
2013-05-14 14:28:00,62.4,27.0,26.95,WSW,243,2.3,0.0,26,0.00,CLR,,0.00,WeatherDisplay:10.37,2013-05-14 18:28:00,
2013-05-14 14:33:00,58.6,24.7,26.95,West,274,8.1,8.1,27,0.00,CLR,,0.00,WeatherDisplay:10.37,2013-05-14 18:33:00,
2013-05-14 14:38:00,58.6,24.7,26.95,NNW,331,8.1,8.1,27,0.00,CLR,,0.00,WeatherDisplay:10.37,2013-05-14 18:38:00,
2013-05-14 14:43:00,62.2,26.9,26.95,WNW,291,5.8,5.8,26,0.00,CLR,,0.00,WeatherDisplay:10.37,2013-05-14 18:43:00,
2013-05-14 14:48:00,61.2,26.0,26.95,SW,236,5.8,5.8,26,0.00,CLR,,0.00,WeatherDisplay:10.37,2013-05-14 18:48:00,
2013-05-14 14:53:00,60.3,26.1,26.95,NNW,341,5.8,5.8,27,0.00,CLR,,0.00,WeatherDisplay:10.37,2013-05-14 18:53:00,
2013-05-14 14:58:00,58.8,24.9,26.95,West,274,5.8,5.8,27,0.00,CLR,,0.00,WeatherDisplay:10.37,2013-05-14 18:58:00,
2013-05-14 15:03:00,59.2,25.2,26.95,WSW,257,5.8,5.8,27,0.00,CLR,,0.00,WeatherDisplay:10.37,2013-05-14 19:03:00,
2013-05-14 15:08:00,57.9,24.1,26.95,WNW,299,9.2,9.2,27,0.00,CLR,,0.00,WeatherDisplay:10.37,2013-05-14 19:08:00,
2013-05-14 15:13:00,57.6,23.8,26.95,WSW,249,8.1,8.1,27,0.00,CLR,,0.00,WeatherDisplay:10.37,2013-05-14 19:13:00,
2013-05-14 15:18:00,57.7,23.9,26.95,West,274,5.8,5.8,27,0.00,CLR,,0.00,WeatherDisplay:10.37,2013-05-14 19:18:00,
2013-05-14 15:23:00,57.9,24.1,26.95,WNW,284,8.1,8.1,27,0.00,CLR,,0.00,WeatherDisplay:10.37,2013-05-14 19:23:00,
2013-05-14 15:28:00,57.6,23.8,26.95,SW,220,4.6,4.6,27,0.00,CLR,,0.00,WeatherDisplay:10.37,2013-05-14 19:28:00,
2013-05-14 15:33:00,58.3,24.4,26.95,West,265,6.9,6.9,27,0.00,CLR,,0.00,WeatherDisplay:10.37,2013-05-14 19:33:00,
2013-05-14 15:38:00,59.4,25.3,26.95,WSW,251,3.5,0.0,27,0.00,CLR,,0.00,WeatherDisplay:10.37,2013-05-14 19:38:00,
2013-05-14 15:43:00,59.4,25.3,26.95,West,268,5.8,5.8,27,0.00,CLR,,0.00,WeatherDisplay:10.37,2013-05-14 19:43:00,
2013-05-14 15:48:00,59.4,25.3,26.95,WNW,300,5.8,5.8,27,0.00,CLR,,0.00,WeatherDisplay:10.37,2013-05-14 19:48:00,
2013-05-14 15:53:00,60.4,26.3,26.95,West,263,5.8,5.8,27,0.00,CLR,,0.00,WeatherDisplay:10.37,2013-05-14 19:53:00,
2013-05-14 15:58:00,59.0,25.0,26.95,West,275,5.8,5.8,27,0.00,CLR,,0.00,WeatherDisplay:10.37,2013-05-14 19:58:00,
2013-05-14 16:03:00,60.6,26.4,26.95,West,259,6.9,6.9,27,0.00,CLR,,0.00,WeatherDisplay:10.37,2013-05-14 20:03:00,
2013-05-14 16:08:00,59.5,25.5,26.95,WNW,289,5.8,5.8,27,0.00,CLR,,0.00,WeatherDisplay:10.37,2013-05-14 20:08:00,
2013-05-14 16:13:00,59.7,25.6,26.95,WNW,302,5.8,5.8,27,0.00,CLR,,0.00,WeatherDisplay:10.37,2013-05-14 20:13:00,
2013-05-14 16:18:00,58.5,24.6,26.95,North,4,5.8,5.8,27,0.00,CLR,,0.00,WeatherDisplay:10.37,2013-05-14 20:18:00,
2013-05-14 16:23:00,58.6,24.7,26.95,North,353,8.1,8.1,27,0.00,CLR,,0.00,WeatherDisplay:10.37,2013-05-14 20:23:00,
2013-05-14 16:28:00,58.6,24.7,26.95,WNW,289,5.8,0.0,27,0.00,CLR,,0.00,WeatherDisplay:10.37,2013-05-14 20:28:00,
2013-05-14 16:33:00,58.6,24.7,26.95,North,357,8.1,8.1,27,0.00,CLR,,0.00,WeatherDisplay:10.37,2013-05-14 20:33:00,
2013-05-14 16:38:00,59.0,25.0,26.95,NW,317,10.4,10.4,27,0.00,CLR,,0.00,WeatherDisplay:10.37,2013-05-14 20:38:00,
2013-05-14 16:43:00,62.1,26.7,26.95,WNW,291,5.8,5.8,26,0.00,CLR,,0.00,WeatherDisplay:10.37,2013-05-14 20:43:00,
2013-05-14 16:48:00,59.5,25.5,26.95,NNW,343,5.8,5.8,27,0.00,CLR,,0.00,WeatherDisplay:10.37,2013-05-14 20:48:00,
2013-05-14 16:53:00,59.4,25.3,26.95,WNW,289,4.6,4.9,27,0.00,CLR,,0.00,WeatherDisplay:10.37,2013-05-14 20:53:00,
2013-05-14 16:58:00,57.7,23.9,26.95,NW,314,5.8,5.8,27,0.00,CLR,,0.00,WeatherDisplay:10.37,2013-05-14 20:58:00,
2013-05-14 17:03:00,57.7,23.9,26.95,WSW,242,5.8,5.8,27,0.00,CLR,,0.00,WeatherDisplay:10.37,2013-05-14 21:03:00,
2013-05-14 17:08:00,57.6,23.8,26.95,South,176,8.1,8.1,27,0.00,CLR,,0.00,WeatherDisplay:10.37,2013-05-14 21:08:00,
2013-05-14 17:13:00,57.2,23.5,26.95,West,274,5.8,5.8,27,0.00,CLR,,0.00,WeatherDisplay:10.37,2013-05-14 21:13:00,
2013-05-14 17:18:00,57.6,23.8,26.95,NW,321,4.6,0.0,27,0.00,CLR,,0.00,WeatherDisplay:10.37,2013-05-14 21:18:00,
2013-05-14 17:23:00,58.1,24.3,26.95,North,2,8.1,8.1,27,0.00,CLR,,0.00,WeatherDisplay:10.37,2013-05-14 21:23:00,
2013-05-14 17:28:00,58.5,24.6,26.95,NW,313,4.6,4.6,27,0.00,CLR,,0.00,WeatherDisplay:10.37,2013-05-14 21:28:00,
2013-05-14 17:33:00,58.5,24.6,26.95,WSW,243,5.8,5.8,27,0.00,CLR,,0.00,WeatherDisplay:10.37,2013-05-14 21:33:00,
2013-05-14 17:38:00,58.6,24.7,26.95,WNW,300,8.1,8.1,27,0.00,CLR,,0.00,WeatherDisplay:10.37,2013-05-14 21:38:00,
2013-05-14 17:43:00,57.7,23.9,26.95,WSW,251,3.5,4.0,27,0.00,CLR,,0.00,WeatherDisplay:10.37,2013-05-14 21:43:00,
2013-05-14 17:48:00,57.2,23.5,26.95,WNW,294,8.7,8.7,27,0.00,CLR,,0.00,WeatherDisplay:10.37,2013-05-14 21:48:00,
2013-05-14 17:53:00,57.0,23.3,26.95,West,274,5.8,0.0,27,0.00,CLR,,0.00,WeatherDisplay:10.37,2013-05-14 21:53:00,
2013-05-14 17:58:00,57.2,23.5,26.95,NW,323,4.9,4.9,27,0.00,CLR,,0.00,WeatherDisplay:10.37,2013-05-14 21:58:00,
2013-05-14 18:03:00,57.4,23.6,26.95,NW,322,3.5,3.5,27,0.00,CLR,,0.00,WeatherDisplay:10.37,2013-05-14 22:03:00,
2013-05-14 18:08:00,57.7,23.9,26.95,NNW,331,3.5,3.5,27,0.00,CLR,,0.00,WeatherDisplay:10.37,2013-05-14 22:08:00,
2013-05-14 18:13:00,57.7,23.9,26.95,WNW,282,5.8,5.8,27,0.00,CLR,,0.00,WeatherDisplay:10.37,2013-05-14 22:13:00,
2013-05-14 18:18:00,57.2,23.5,26.95,NNW,345,3.5,3.5,27,0.00,CLR,,0.00,WeatherDisplay:10.37,2013-05-14 22:18:00,
2013-05-14 18:23:00,56.5,22.9,26.95,NW,310,5.8,5.8,27,0.00,CLR,,0.00,WeatherDisplay:10.37,2013-05-14 22:23:00,
2013-05-14 18:28:00,55.9,22.4,26.95,NW,321,3.5,3.5,27,0.00,CLR,,0.00,WeatherDisplay:10.37,2013-05-14 22:28:00,
2013-05-14 18:33:00,55.2,22.6,26.95,NNW,335,4.0,4.0,28,0.00,CLR,,0.00,WeatherDisplay:10.37,2013-05-14 22:33:00,
2013-05-14 18:38:00,55.6,22.1,26.95,SW,228,3.5,3.5,27,0.00,CLR,,0.00,WeatherDisplay:10.37,2013-05-14 22:38:00,
2013-05-14 18:43:00,55.8,22.2,26.95,NNE,12,3.5,0.0,27,0.00,CLR,,0.00,WeatherDisplay:10.37,2013-05-14 22:43:00,
2013-05-14 18:48:00,55.4,21.9,26.95,NW,316,3.5,3.5,27,0.00,CLR,,0.00,WeatherDisplay:10.37,2013-05-14 22:48:00,
2013-05-14 18:53:00,55.2,22.6,26.95,NW,305,5.8,5.8,28,0.00,CLR,,0.00,WeatherDisplay:10.37,2013-05-14 22:53:00,
2013-05-14 18:58:00,55.4,21.9,26.95,NW,308,3.5,3.5,27,0.00,CLR,,0.00,WeatherDisplay:10.37,2013-05-14 22:58:00,
2013-05-14 19:03:00,55.0,22.5,26.95,WNW,289,2.3,2.7,28,0.00,CLR,,0.00,WeatherDisplay:10.37,2013-05-14 23:03:00,
2013-05-14 19:08:00,55.0,22.5,26.95,NNW,342,5.8,5.8,28,0.00,CLR,,0.00,WeatherDisplay:10.37,2013-05-14 23:08:00,
2013-05-14 19:13:00,55.2,22.6,26.95,NE,36,5.8,5.8,28,0.00,CLR,,0.00,WeatherDisplay:10.37,2013-05-14 23:13:00,
2013-05-14 19:18:00,54.9,22.3,26.95,WSW,249,4.6,0.0,28,0.00,CLR,,0.00,WeatherDisplay:10.37,2013-05-14 23:18:00,
2013-05-14 19:23:00,54.7,22.2,26.95,NW,311,5.8,5.8,28,0.00,CLR,,0.00,WeatherDisplay:10.37,2013-05-14 23:23:00,
2013-05-14 19:28:00,54.3,21.9,26.95,West,276,2.3,2.3,28,0.00,CLR,,0.00,WeatherDisplay:10.37,2013-05-14 23:28:00,
2013-05-14 19:33:00,54.1,21.7,26.95,NW,312,5.8,5.8,28,0.00,CLR,,0.00,WeatherDisplay:10.37,2013-05-14 23:33:00,
2013-05-14 19:38:00,53.8,21.4,26.95,WNW,300,0.0,0.0,28,0.00,CLR,,0.00,WeatherDisplay:10.37,2013-05-14 23:38:00,
2013-05-14 19:43:00,53.2,20.9,26.95,West,274,3.6,3.6,28,0.00,CLR,,0.00,WeatherDisplay:10.37,2013-05-14 23:43:00,
2013-05-14 19:48:00,53.1,20.8,26.95,NW,314,2.3,0.0,28,0.00,CLR,,0.00,WeatherDisplay:10.37,2013-05-14 23:48:00,
2013-05-14 19:53:00,52.7,20.5,26.95,SSW,211,3.5,3.6,28,0.00,CLR,,0.00,WeatherDisplay:10.37,2013-05-14 23:53:00,
2013-05-14 19:58:00,52.3,20.2,26.95,WNW,292,0.0,0.0,28,0.00,CLR,,0.00,WeatherDisplay:10.37,2013-05-14 23:58:00,
2013-05-14 20:03:00,51.8,19.7,26.95,NW,307,3.5,0.0,28,0.00,CLR,,0.00,WeatherDisplay:10.37,2013-05-15 00:03:00,
2013-05-14 20:08:00,51.6,20.4,26.95,NW,314,3.5,0.0,29,0.00,CLR,,0.00,WeatherDisplay:10.37,2013-05-15 00:08:00,
2013-05-14 20:13:00,51.3,17.5,26.95,WSW,257,3.5,3.5,26,0.00,CLR,,0.00,WeatherDisplay:10.37,2013-05-15 00:13:00,
2013-05-14 20:18:00,50.9,17.2,26.95,WSW,255,3.5,0.0,26,0.00,CLR,,0.00,WeatherDisplay:10.37,2013-05-15 00:18:00,
2013-05-14 20:23:00,50.9,17.2,26.95,West,273,2.3,0.0,26,0.00,CLR,,0.00,WeatherDisplay:10.37,2013-05-15 00:23:00,
2013-05-14 20:28:00,50.5,16.9,26.95,West,275,0.0,0.0,26,0.00,CLR,,0.00,WeatherDisplay:10.37,2013-05-15 00:28:00,
2013-05-14 20:33:00,50.2,16.6,26.95,WNW,303,0.0,0.0,26,0.00,CLR,,0.00,WeatherDisplay:10.37,2013-05-15 00:33:00,
2013-05-14 20:38:00,49.6,16.1,26.95,WNW,303,0.0,0.0,26,0.00,CLR,,0.00,WeatherDisplay:10.37,2013-05-15 00:38:00,
2013-05-14 20:43:00,49.1,15.6,26.95,WNW,303,0.0,0.0,26,0.00,CLR,,0.00,WeatherDisplay:10.37,2013-05-15 00:43:00,
2013-05-14 20:48:00,48.7,15.3,26.95,WSW,255,0.0,0.0,26,0.00,CLR,,0.00,WeatherDisplay:10.37,2013-05-15 00:48:00,
2013-05-14 20:53:00,48.6,15.2,26.95,WSW,255,0.0,0.0,26,0.00,CLR,,0.00,WeatherDisplay:10.37,2013-05-15 00:53:00,
2013-05-14 20:58:00,48.2,14.9,26.95,WSW,255,0.0,0.0,26,0.00,CLR,,0.00,WeatherDisplay:10.37,2013-05-15 00:58:00,
2013-05-14 21:03:00,47.8,15.4,26.95,WSW,255,0.0,0.0,27,0.00,CLR,,0.00,WeatherDisplay:10.37,2013-05-15 01:03:00,
2013-05-14 21:08:00,47.5,15.1,26.95,WSW,255,0.0,0.0,27,0.00,CLR,,0.00,WeatherDisplay:10.37,2013-05-15 01:08:00,
2013-05-14 21:13:00,47.3,15.0,26.95,WNW,293,2.3,0.0,27,0.00,CLR,,0.00,WeatherDisplay:10.37,2013-05-15 01:13:00,
2013-05-14 21:18:00,46.9,14.6,26.95,WNW,293,0.0,0.0,27,0.00,CLR,,0.00,WeatherDisplay:10.37,2013-05-15 01:18:00,
2013-05-14 21:23:00,46.8,14.5,26.95,WNW,293,0.0,0.0,27,0.00,CLR,,0.00,WeatherDisplay:10.37,2013-05-15 01:23:00,
2013-05-14 21:28:00,46.4,14.2,26.95,WNW,293,0.0,0.0,27,0.00,CLR,,0.00,WeatherDisplay:10.37,2013-05-15 01:28:00,
2013-05-14 21:33:00,46.2,14.0,26.95,WNW,293,0.0,0.0,27,0.00,CLR,,0.00,WeatherDisplay:10.37,2013-05-15 01:33:00,
2013-05-14 21:38:00,46.0,13.9,26.95,WNW,293,0.0,0.0,27,0.00,CLR,,0.00,WeatherDisplay:10.37,2013-05-15 01:38:00,
2013-05-14 21:43:00,45.9,13.7,26.95,WNW,293,0.0,0.0,27,0.00,CLR,,0.00,WeatherDisplay:10.37,2013-05-15 01:43:00,
2013-05-14 21:48:00,45.3,13.2,26.95,WNW,293,0.0,0.0,27,0.00,CLR,,0.00,WeatherDisplay:10.37,2013-05-15 01:48:00,
2013-05-14 21:53:00,45.0,12.9,26.95,WNW,293,0.0,0.0,27,0.00,CLR,,0.00,WeatherDisplay:10.37,2013-05-15 01:53:00,
2013-05-14 21:58:00,44.8,12.8,26.95,WNW,293,0.0,0.0,27,0.00,CLR,,0.00,WeatherDisplay:10.37,2013-05-15 01:58:00,
2013-05-14 22:03:00,44.4,13.3,26.95,WNW,293,0.0,0.0,28,0.00,CLR,,0.00,WeatherDisplay:10.37,2013-05-15 02:03:00,
2013-05-14 22:08:00,44.1,13.0,26.95,WNW,293,0.0,0.0,28,0.00,CLR,,0.00,WeatherDisplay:10.37,2013-05-15 02:08:00,
2013-05-14 22:13:00,43.7,12.7,26.95,WNW,293,0.0,0.0,28,0.00,CLR,,0.00,WeatherDisplay:10.37,2013-05-15 02:13:00,
2013-05-14 22:18:00,43.3,12.4,26.95,WNW,293,0.0,0.0,28,0.00,CLR,,0.00,WeatherDisplay:10.37,2013-05-15 02:18:00,
2013-05-14 22:23:00,43.2,12.2,26.95,WNW,293,0.0,0.0,28,0.00,CLR,,0.00,WeatherDisplay:10.37,2013-05-15 02:23:00,
2013-05-14 22:28:00,43.0,12.0,26.95,WNW,293,0.0,0.0,28,0.00,CLR,,0.00,WeatherDisplay:10.37,2013-05-15 02:28:00,
2013-05-14 22:33:00,42.6,11.7,26.95,WNW,293,0.0,0.0,28,0.00,CLR,,0.00,WeatherDisplay:10.37,2013-05-15 02:33:00,
2013-05-14 22:38:00,42.4,11.6,26.95,WNW,293,0.0,0.0,28,0.00,CLR,,0.00,WeatherDisplay:10.37,2013-05-15 02:38:00,
2013-05-14 22:43:00,42.3,11.4,26.95,WNW,293,0.0,0.0,28,0.00,CLR,,0.00,WeatherDisplay:10.37,2013-05-15 02:43:00,
2013-05-14 22:48:00,42.1,11.3,26.95,WNW,293,0.0,0.0,28,0.00,CLR,,0.00,WeatherDisplay:10.37,2013-05-15 02:48:00,
2013-05-14 22:53:00,41.9,11.1,26.95,WNW,293,0.0,0.0,28,0.00,CLR,,0.00,WeatherDisplay:10.37,2013-05-15 02:53:00,
2013-05-14 22:58:00,41.7,11.0,26.95,WNW,293,0.0,0.0,28,0.00,CLR,,0.00,WeatherDisplay:10.37,2013-05-15 02:58:00,
2013-05-14 23:03:00,41.5,10.8,26.95,WNW,293,0.0,0.0,28,0.00,CLR,,0.00,WeatherDisplay:10.37,2013-05-15 03:03:00,
2013-05-14 23:08:00,41.4,10.6,26.95,WNW,293,0.0,0.0,28,0.00,CLR,,0.00,WeatherDisplay:10.37,2013-05-15 03:08:00,
2013-05-14 23:13:00,41.2,10.5,26.95,WNW,293,0.0,0.0,28,0.00,CLR,,0.00,WeatherDisplay:10.37,2013-05-15 03:13:00,
2013-05-14 23:18:00,40.8,10.2,26.95,WNW,293,0.0,0.0,28,0.00,CLR,,0.00,WeatherDisplay:10.37,2013-05-15 03:18:00,
2013-05-14 23:23:00,40.5,9.9,26.95,WNW,293,0.0,0.0,28,0.00,CLR,,0.00,WeatherDisplay:10.37,2013-05-15 03:23:00,
2013-05-14 23:28:00,40.3,9.7,26.95,WNW,293,0.0,0.0,28,0.00,CLR,,0.00,WeatherDisplay:10.37,2013-05-15 03:28:00,
2013-05-14 23:33:00,40.1,9.6,26.95,WNW,293,0.0,0.0,28,0.00,CLR,,0.00,WeatherDisplay:10.37,2013-05-15 03:33:00,
2013-05-14 23:38:00,39.7,9.2,26.95,WNW,293,0.0,0.0,28,0.00,CLR,,0.00,WeatherDisplay:10.37,2013-05-15 03:38:00,
2013-05-14 23:43:00,39.7,9.2,26.95,WNW,293,0.0,0.0,28,0.00,CLR,,0.00,WeatherDisplay:10.37,2013-05-15 03:43:00,
2013-05-14 23:48:00,39.6,9.1,26.95,WNW,293,0.0,0.0,28,0.00,CLR,,0.00,WeatherDisplay:10.37,2013-05-15 03:48:00,
2013-05-14 23:53:00,39.4,8.9,26.95,WNW,293,0.0,0.0,28,0.00,CLR,,0.00,WeatherDisplay:10.37,2013-05-15 03:53:00,
2013-05-14 23:58:00,39.2,8.8,26.95,WNW,293,0.0,0.0,28,0.00,CLR,,0.00,WeatherDisplay:10.37,2013-05-15 03:58:00,